TimeMDT,TemperatureF,Dew PointF,Humidity,Sea Level PressureIn,VisibilityMPH,Wind Direction,Wind SpeedMPH,Gust SpeedMPH,PrecipitationIn,Events,Conditions,WindDirDegrees,DateUTC
12:53 AM,32.0,15.1,50,30.32,10.0,West,5.8,-,N/A,,Clear,270,2012-10-26 06:53:00
1:53 AM,32.0,15.1,50,30.33,10.0,Calm,Calm,-,N/A,,Clear,0,2012-10-26 07:53:00
2:53 AM,28.9,14.0,54,30.34,10.0,NW,6.9,-,N/A,,Clear,320,2012-10-26 08:53:00
3:53 AM,30.0,15.1,54,30.36,10.0,WNW,4.6,-,N/A,,Clear,290,2012-10-26 09:53:00
4:53 AM,24.1,12.9,62,30.40,10.0,Calm,Calm,-,N/A,,Clear,0,2012-10-26 10:53:00
5:53 AM,23.0,12.0,63,30.42,10.0,Calm,Calm,-,N/A,,Clear,0,2012-10-26 11:53:00
6:53 AM,21.9,12.0,66,30.45,10.0,WSW,3.5,-,N/A,,Clear,250,2012-10-26 12:53:00
7:53 AM,21.0,10.9,65,30.48,10.0,Calm,Calm,-,N/A,,Clear,0,2012-10-26 13:53:00
8:53 AM,30.2,15.8,55,30.42,10.0,NW,6.9,-,N/A,,Clear,320,2012-10-26 14:53:00
9:53 AM,37.0,17.1,44,30.48,10.0,NW,8.1,-,N/A,,Clear,320,2012-10-26 15:53:00
10:53 AM,43.0,16.0,34,30.45,10.0,Calm,Calm,-,N/A,,Clear,0,2012-10-26 16:53:00
11:53 AM,44.1,14.0,30,30.45,10.0,East,11.5,-,N/A,,Clear,90,2012-10-26 17:53:00
12:53 PM,46.0,12.0,25,30.42,10.0,ESE,5.8,-,N/A,,Clear,120,2012-10-26 18:53:00
1:53 PM,46.9,10.9,23,30.36,10.0,SE,4.6,-,N/A,,Clear,130,2012-10-26 19:53:00
2:53 PM,48.0,10.0,22,30.33,10.0,Calm,Calm,-,N/A,,Clear,0,2012-10-26 20:53:00
3:53 PM,48.9,8.1,19,30.30,10.0,NNE,3.5,-,N/A,,Clear,20,2012-10-26 21:53:00
4:53 PM,46.9,6.1,19,30.30,10.0,WNW,4.6,-,N/A,,Clear,300,2012-10-26 22:53:00
5:53 PM,46.0,7.0,20,30.27,10.0,NNW,3.5,-,N/A,,Clear,330,2012-10-26 23:53:00
6:53 PM,41.0,6.1,24,30.29,10.0,North,4.6,-,N/A,,Clear,360,2012-10-27 00:53:00
7:53 PM,34.0,3.0,27,30.32,8.0,West,4.6,-,N/A,,Clear,270,2012-10-27 01:53:00
8:53 PM,36.0,6.1,29,30.28,10.0,West,3.5,-,N/A,,Clear,260,2012-10-27 02:53:00
9:53 PM,33.1,5.0,31,30.27,10.0,WNW,3.5,-,N/A,,Clear,290,2012-10-27 03:53:00
10:53 PM,30.9,8.1,38,30.25,10.0,SW,3.5,-,N/A,,Clear,230,2012-10-27 04:53:00
11:53 PM,28.0,5.0,38,30.25,10.0,Calm,Calm,-,N/A,,Clear,0,2012-10-27 05:53:00